Date,TemperatureHighF,TemperatureAvgF,TemperatureLowF,DewpointHighF,DewpointAvgF,DewpointLowF,HumidityHigh,HumidityAvg,HumidityLow,PressureMaxIn,PressureMinIn,WindSpeedMaxMPH,WindSpeedAvgMPH,GustSpeedMaxMPH,PrecipitationSumIn
2013-9-1,87.5,82.0,74.8,68.7,63.1,57.5,72,53,42,29.87,29.69,20,4,20,0.00
2013-9-2,88.4,78.6,70.4,68.6,60.6,52.3,89,58,31,29.99,29.86,16,5,16,0.00
2013-9-3,91.2,76.6,62.6,62.8,57.1,51.6,85,55,28,30.02,29.89,11,2,0,0.00
2013-9-4,93.4,78.3,59.7,63.1,57.3,47.5,84,53,22,30.05,29.95,11,2,0,0.00
2013-9-5,97.3,82.0,65.3,68.6,62.9,56.3,87,56,28,30.05,29.93,14,3,14,0.00
2013-9-6,97.8,84.6,71.2,66.3,62.8,60.4,72,50,30,30.00,29.85,13,4,13,0.00
2013-9-7,99.3,85.8,72.1,65.3,62.3,58.2,72,48,26,29.91,29.79,15,3,15,0.00
2013-9-8,96.3,84.0,71.8,65.2,60.7,54.1,72,48,26,29.87,29.76,19,4,19,0.00
2013-9-9,92.8,82.0,70.4,65.7,60.1,56.4,74,50,30,29.87,29.76,22,5,22,0.00
2013-9-10,90.3,81.4,71.2,66.1,62.4,59.3,79,54,37,29.99,29.85,21,5,21,0.00
2013-9-11,91.8,81.4,71.5,66.8,62.6,59.6,77,55,37,30.04,29.92,15,4,15,0.00
2013-9-12,94.3,79.8,67.5,68.5,62.9,58.8,81,59,32,30.02,29.90,18,3,18,0.00
2013-9-13,79.6,74.3,69.3,68.1,64.4,57.4,88,72,58,29.99,29.89,21,8,21,0.00
2013-9-14,83.8,73.1,65.3,67.8,62.0,54.8,87,69,57,29.97,29.83,12,3,0,0.18
2013-9-15,89.8,79.4,69.5,66.3,62.8,60.5,75,59,38,29.96,29.86,17,4,17,0.00
2013-9-16,83.8,74.2,66.7,71.1,67.5,62.9,94,80,61,30.09,29.93,16,4,16,1.66
2013-9-17,86.8,74.3,67.9,72.0,68.4,65.3,96,83,57,30.09,29.87,23,4,24,0.24
2013-9-18,89.5,78.6,70.3,70.4,66.4,61.8,91,69,40,29.90,29.75,22,5,22,0.00
2013-9-19,85.8,75.6,65.6,69.4,64.9,62.1,90,70,49,29.93,29.77,24,5,24,0.19
2013-9-20,69.4,65.2,59.4,63.6,57.8,52.5,93,78,56,30.01,29.85,22,7,22,0.00
2013-9-21,81.6,68.0,55.8,57.2,51.6,45.8,86,60,29,30.02,29.86,10,2,0,0.00
2013-9-22,82.9,69.2,55.9,55.5,50.5,47.6,80,54,30,29.89,29.72,17,4,17,0.00
2013-9-23,83.2,70.4,55.3,54.1,51.8,49.1,83,54,34,29.84,29.66,26,6,26,0.00
2013-9-24,85.2,72.9,61.4,52.7,46.8,40.4,67,42,22,29.94,29.83,22,4,22,0.00
2013-9-25,88.3,72.9,56.4,57.0,50.6,43.5,75,48,28,29.85,29.66,17,4,17,0.00
2013-9-26,92.0,79.6,68.5,62.6,57.7,51.8,70,49,31,29.73,29.64,24,8,24,0.00
2013-9-27,87.7,77.8,66.5,69.6,62.4,52.5,75,60,47,29.78,29.64,25,9,25,0.00
2013-9-28,78.3,66.2,56.4,71.1,55.1,45.2,92,69,40,30.09,29.68,27,8,27,1.45
2013-9-29,76.6,63.8,51.4,53.9,48.2,41.1,85,60,30,30.09,29.88,8,1,0,0.00
2013-9-30,83.5,68.1,54.0,57.6,52.7,48.2,82,60,36,29.88,29.72,19,5,19,0.00